Regional Weather Roundup
Issued by NWS Lake Charles, LA

Home | Current Version | Previous Version | Text Only | Print | Product List | Glossary On
Versions: 1 2 3 4 5 6 7 8 9 10 11 12 13 14 15 16 17 18 19 20 21 22 23 24 25 26 27 28 29 30 31 32 33 34 35 36 37 38 39 40 41 42 43 44 45 46 47 48 49 50
643
ASUS44 KLCH 241310
RWRLCH
REGIONAL WEATHER ROUNDUP
NATIONAL WEATHER SERVICE LAKE CHARLES LA
800 AM CDT SAT JUN 24 2017

Note: "fair" indicates few or no clouds below 12,000 feet with no
significant weather and/or obstructions to visibility.


ACROSS SOUTHEAST TEXAS

CITY           SKY/WX    TMP DP  RH WIND       PRES   REMARKS
BEAUMONT       MOSUNNY   81  75  82 CALM      30.01R
BEAUMONT CITY  FAIR     N/A N/A N/A MISG      30.01R
ORANGE         TSTM      76  75  98 NE8       30.03R
JASPER           N/A     79  78  98 S3        30.02S
$$

ACROSS CENTRAL LOUISIANA

CITY           SKY/WX    TMP DP  RH WIND       PRES   REMARKS
LEESVILLE      PTSUNNY   77  73  88 SE5       30.01R
FULLERTON      PTSUNNY   77  74  90 CALM      29.99S
ALEXANDRIA INT CLOUDY    75  73  93 E5        30.00R
ESLER FIELD    CLOUDY    74  73  97 E3        30.02S
DERIDDER       CLOUDY    78  77  95 CALM      30.04R FOG
OAKDALE        CLOUDY    74  73  93 CALM      30.03R
OPELOUSAS      FAIR      76  74  94 CALM      30.02S
$$

ACROSS SOUTHWEST AND SOUTH CENTRAL LOUISIANA

CITY           SKY/WX    TMP DP  RH WIND       PRES   REMARKS
SULPHUR        CLOUDY    80  77  90 CALM      30.01R
LAKE CHARLES   CLOUDY    82  82 100 SE5       30.01R
CHENNAULT INT  NOT AVBL
CAMERON PHI    MOSUNNY   82  79  89 S6        30.01R
DEQUINCY       PTSUNNY   77  76  97 CALM      30.01S
JENNINGS       FAIR     N/A N/A N/A S3        30.02R
LAFAYETTE      CLOUDY    81  79  94 SW6       30.02S
NEW IBERIA     PTSUNNY   81  78  91 CALM      30.03R FOG
ABBEVILLE      FAIR      81  81 100 CALM      30.02S FOG
PATTERSON      SUNNY     82  79  90 S6        30.03S
SALT POINT       N/A     83  77  82 S3        30.01R
$$

SELECTED SITES ACROSS THE REGION

CITY           SKY/WX    TMP DP  RH WIND       PRES   REMARKS
HOUSTON BUSH   TSTM      78  74  87 N6        29.99R
HOUSTON HOBBY  PTSUNNY   82  79  90 CALM      29.97S
GALVESTON      MOSUNNY   83  80  91 S13       29.99R
COLLEGE STAT   LGT RAIN  71  71 100 N10       30.02F
CONROE         TSTM      75  74  96 SE8       30.02R VSB 1/2
HUNTSVILLE     CLOUDY    75  72  90 SW8       29.95F
LUFKIN         CLOUDY    73  70  90 S7        29.99R
SHREVEPORT     CLOUDY    74  73  97 NE8       30.04R
MONROE         CLOUDY    73  70  90 NE8       30.05R
NATCHEZ MS     CLOUDY    72  70  93 NE3       30.06S
BATON ROUGE    CLOUDY    77  75  93 NW3       30.03R
N.O. INTL ARPT CLOUDY    80  79  96 VRB6      30.01F
SLIDELL        PTSUNNY   81  75  82 N5        30.01R
$$

MARINE REPORTS

STATION/POSITION TIME  SKY/WX   TEMP    WIND        PRES    VSBY
                                AIR SEA DIR/SP/G
                 (UTC)          (F)     (DEG/KT/KT) (MB)    (MI)
BUOY 30 S HIGH I 1150            82 83  180/  8/ 10 1015.2
WVE H/P(F/S)=  4/ 7

SEA RIM ST PARK  1300            82     180/  8/ 11 1016.4R
PORT ARTHUR      1248            82 83  160/  3/  6 1016.1R
SABINE PASS N    1242            83 85  180/  8/ 11 1017.2R
TEXAS POINT      NOT AVBL
CALCASIEU PASS   1248            82 83  200/  6/  8   N/A
LK CHARLES BEACH 1248            79 81              1016.8R
MARSH ISLAND     1200            82                   N/A
FRESH WATER LOCK 1248            81 84  190/  3/  5 1016.8R
AMERADA PASS     1248            82 81   CALM  /  3 1016.7R
$$




USA.gov is the U.S. government's official web portal to all federal, state and local government web resources and services.